Погода в Кайо Энсеначос

Куба     22°38′40″N   79°05′18″W
темп.,
°C
ветер,
м/с
пор.,
м/с
влажн.,
%
обл.,
%
осадки,
мм/ч
давл.,
гПа
погр.,
м
22 января, сб
сб2201:00+25вюв44790 2.3 1017229
04:00+25юв4476100 0.7 1016319
07:00+25юв3375100 1.1 1017447
10:00+25юв227893 0.7 1020277
13:00+25в1176100 0.8 1018355
16:00+25с33765 0.4 1016348
19:00+25ссв66755 0.6 1016433
22:00+25ссв557550 0.5 1018471
23 января, вс
вс2301:00+24ссв457827 2.1 1017348
04:00+25ссв55755 0.8 1015723
07:00+24ссв55776 0.8 1016734
10:00+24ссв557714 0.1 1018717
13:00+24ссв447625 0.3 1016705
16:00+24с447719 0.2 1014712
19:00+24с557619 0.3 1015807
22:00+24ссз557357 0.2 1016830
24 января, пн
пн2401:00+24сз557521 0.3 1015689
04:00+23сз767771 0.3 1014878
07:00+23сз777595 0.4 1015909
10:00+23сз667083 0.0 10171031
13:00+22сз66670 0.0 1015959
16:00+22сз55630 0.0 1014863
19:00+21ссз55650 0.0 1015702
22:00+22с44620 0.0 1015698
25 января, вт
вт2501:00+22с22620 0.0 1014586
04:00+22св11620 0.0 1014615
07:00+22юв22630 0.0 1015586
10:00+23ююв44650 0.0 1016548
13:00+23юв34670 0.0 1014373
16:00+24в55730 0.0 1011259
19:00+25вюв55770 0.0 1014391
22:00+25юз44760 0.0 1015421
26 января, ср
ср2601:00+24ююз33815 0.0 1015296
04:00+24ююз448346 0.0 1013288
07:00+24юз338394 0.0 1015315
10:00+24юз44832 0.0 1017317
13:00+25сз44795 0.0 1016459
16:00+25ссз998252 1.3 1015778
19:00+24ссз10982100 2.2 1018850
22:00+23ссз8875100 0.3 1019909